Location: Herkheim
(48.8221°N, 10.4864°E)
Time: 04:07:12
(UTC+00:00)

Daily predictions for brighter satellites

Satellite Brightness Start Highest point End
(mag) Time Altitude Azimuth Time Altitude Azimuth Time Altitude Azimuth
CZ-4C R/B 4.1 00:06:34 26° NNW 00:06:38 26° NNW 00:12:08 10° NE
USA 234 4.1 00:01:45 10° ENE 00:07:48 45° N 00:07:48 45° N
Cosmos 2369 Rocket 4.1 00:10:57 24° N 00:10:57 24° N 00:13:42 10° NNE
ADEOS II 4.1 00:41:23 10° NE 00:44:27 23° ENE 00:44:27 23° ENE
Cosmos 2227 Rocket 4.1 00:52:07 10° NNW 00:54:06 23° NNW 00:54:06 23° NNW
SL-16 R/B 3.6 01:15:09 35° NNW 01:15:09 35° NNW 01:18:36 10° NNW
USA 267 4.2 01:07:53 10° ENE 01:13:06 36° ESE 01:13:06 36° ESE
SJ 16-02 4.4 01:17:36 10° NNE 01:19:53 14° NE 01:22:08 10° E
CZ-2D R/B 3.2 01:15:26 10° NNE 01:18:48 40° N 01:18:48 40° N
Lacrosse 5 3.4 01:29:27 31° E 01:29:27 31° E 01:32:25 10° ENE
Resurs 1-4 Rocket 3.2 01:22:35 10° N 01:25:56 40° N 01:25:56 40° N
ATLAS 5 CENTAUR R/B 3.5 01:30:41 28° N 01:30:41 28° N 01:33:25 10° NNE
NPP 4.4 01:26:24 10° NNE 01:30:13 47° N 01:30:13 47° N
SL-08 R/B 4.5 01:37:45 40° NNE 01:37:45 40° NNE 01:41:11 10° N
Cosmos 1818 4.3 01:44:09 48° N 01:44:09 48° N 01:48:30 10° NNE
USA 234 3.4 01:43:57 10° ESE 01:50:26 72° NNE 01:55:07 20° NW
IRS-P3 4.5 01:45:48 10° NNE 01:51:04 59° E 01:51:04 59° E
Cosmos 1821 Rocket 3.9 01:52:59 10° N 01:59:20 87° E 02:00:05 71° SSE
CZ-4B R/B 3.8 01:54:28 10° NNE 01:58:43 62° N 01:58:43 62° N
Cosmos 1697 Rocket 2.6 02:01:35 79° E 02:01:35 79° E 02:07:08 10° NNE
Cosmos 972 Rocket 4.1 02:05:43 66° E 02:05:43 66° E 02:10:19 10° NNE
Cosmos 1980 Rocket 2.8 02:05:37 45° SE 02:06:36 50° ESE 02:12:03 10° NE
NOSS 2-2 (C) 4.3 02:06:13 54° NW 02:07:42 81° SW 02:15:23 10° SE
Cosmos 1934 Rocket 4.2 02:04:38 10° N 02:10:41 65° ENE 02:15:17 18° SSE
Cosmos 2263 Rocket 3.1 02:06:09 10° NNW 02:11:37 47° NE 02:17:05 10° SE
Meteor 1-26 Rocket 4.3 02:11:26 56° SE 02:12:18 66° E 02:17:42 10° NNE
Cosmos 1515 Rocket 4.1 02:12:56 56° E 02:12:56 56° E 02:17:12 10° NNE
Meteor 1-25 Rocket 4.1 02:09:02 10° NNW 02:14:52 76° W 02:14:52 76° W
SL-16 R/B 4.3 02:18:42 10° SSE 02:22:51 21° E 02:27:01 10° NE
Cosmos 1328 Rocket 4.1 02:24:02 51° NNW 02:24:02 51° NNW 02:27:30 10° N
Gbstr 26 Del rocket 4.4 02:18:38 30° WNW 02:23:09 87° NNE 02:30:43 10° ESE
CZ-3B R/B 2.2 02:25:23 63° NNE 02:25:23 63° NNE 02:32:07 10° ENE
Cosmos 1151 Rocket 3.8 02:26:32 42° NNW 02:26:32 42° NNW 02:29:39 10° N
ADEOS II 2.3 02:20:32 10° N 02:25:24 53° WNW 02:25:24 53° WNW
USA 305 3.1 02:27:21 67° ENE 02:27:21 67° ENE 02:31:05 10° ENE
Nadezhda 3 Rocket 3.8 02:26:57 59° SW 02:27:59 71° W 02:34:10 10° N
Cosmos 1933 Rocket 3.7 02:25:03 10° N 02:28:52 67° N 02:28:52 67° N
ARIANE 5 R/B 2.4 02:25:29 10° NNE 02:30:37 90° ESE 02:31:22 66° SSW
USA 306 3.0 02:31:23 74° ENE 02:31:23 74° ENE 02:35:16 10° ENE
Cosmos 1656 4.3 02:32:28 38° NW 02:32:39 38° NW 02:37:49 10° NNE
CZ-4C R/B 4.2 02:32:38 27° SE 02:34:11 43° ENE 02:37:36 10° N
IDEFIX/ARIANE 42P 2.6 02:29:46 10° NNE 02:35:04 78° ESE 02:36:51 43° S
IRS-1D 4.1 02:30:30 10° N 02:35:24 42° WNW 02:35:24 42° WNW
Cosmos 1605 Rocket 4.3 02:30:58 10° N 02:37:22 69° ENE 02:43:45 10° SSE
Cosmos 1535 Rocket 4.4 02:32:22 10° N 02:38:47 85° W 02:45:11 10° S
Meteor 1-14 Rocket 4.0 02:33:20 10° NNW 02:38:59 83° W 02:42:40 22° S
ASTEX 1 3.3 02:34:56 10° N 02:39:58 89° W 02:41:22 49° S
CZ-2C R/B 4.2 02:35:48 10° NNE 02:40:21 31° E 02:44:55 10° SSE
Cosmos 2228 Rocket 3.6 02:39:36 34° SSE 02:41:15 57° E 02:45:35 10° NNE
SL-4 R/B 4.4 02:45:52 14° SSE 02:47:42 18° SE 02:50:51 10° E
CZ-2D R/B 3.4 02:43:34 10° NNE 02:47:48 83° WNW 02:48:18 68° SSW
Cosmos 1869 Rocket 4.0 02:44:30 10° N 02:48:50 59° ENE 02:53:06 10° SSE
IRS-1C 4.3 02:46:44 10° N 02:51:53 50° WNW 02:52:48 45° W
USA 267 3.2 02:50:45 10° NE 02:57:19 82° NNW 03:00:27 34° WSW
USA 307 2.9 02:57:59 56° WNW 02:58:41 68° NNW 03:02:57 10° ENE
Cosmos 1238 Rocket 4.0 02:52:10 10° NNW 02:58:44 65° W 03:04:09 13° S
Cosmos 1782 3.1 02:59:09 48° WNW 02:59:09 48° WNW 03:02:48 10° N
SJ 16-02 1.3 02:54:44 10° NNW 02:59:10 88° ENE 03:03:33 10° SSE
CZ-2C R/B 2.7 02:55:24 10° NNE 02:59:10 81° ESE 03:00:11 47° S
NOSS 3-3 (A) 4.1 02:56:41 28° SSW 02:59:47 66° SE 03:06:17 10° NE
NOSS 3-3 (C) 4.1 02:56:51 28° SSW 02:59:54 65° SE 03:06:21 10° NE
CZ-2D R/B 3.9 02:57:01 10° NNW 03:00:01 15° NW 03:00:07 15° NW
Cosmos 44 3.0 02:59:36 50° SW 03:00:45 89° WNW 03:05:28 10° NE
Meteor 1-4 Rocket 3.7 02:59:36 19° SSE 03:01:45 41° E 03:05:05 10° NNE
USA 308 3.0 03:01:02 52° WNW 03:01:53 66° NNW 03:06:08 10° ENE
Cosmos 389 Rocket 2.9 03:02:26 49° NW 03:02:26 49° NW 03:05:29 10° N
USA 276 2.2 03:04:24 69° N 03:04:25 69° N 03:07:39 10° E
Cosmos 2278 3.8 03:02:26 38° WSW 03:04:29 62° WNW 03:10:10 10° NNE
Resurs 1-4 Rocket 4.0 03:04:20 10° NNW 03:06:45 13° NW 03:07:00 13° NW
Cosmos 990 Rocket 4.1 03:02:09 10° NNW 03:07:22 78° ENE 03:12:36 10° SSE
H-2A R/B 2.0 03:05:01 10° S 03:09:23 78° WSW 03:13:54 10° NNW
ATLAS CENTAUR R/B 4.1 02:57:13 10° WNW 03:09:40 50° N 03:14:26 10° E
Lacrosse 5 2.2 03:08:39 35° W 03:10:32 55° NNW 03:15:33 10° NE
ERBS 3.0 03:11:03 38° S 03:11:44 45° SE 03:14:58 10° ENE
ATLAS 2AS CENTAUR R/B 3.5 03:05:45 10° NW 03:13:18 58° NE 03:20:14 10° ESE
Cosmos 2369 4.4 03:11:29 31° W 03:13:24 40° NW 03:18:48 10° NNE
Cosmos 1727 Rocket 4.3 03:08:20 10° S 03:14:37 69° E 03:20:55 10° NNE
ATLAS 5 CENTAUR R/B 3.9 03:12:12 11° NW 03:14:53 17° N 03:18:14 10° NNE
Cosmos 1339 Rocket 4.4 03:15:35 15° SSW 03:20:56 68° WNW 03:27:08 10° N
Meteor 1-11 Rocket 3.8 03:16:01 10° N 03:21:53 83° E 03:27:32 10° SSE
Landsat 5 3.6 03:17:36 10° S 03:22:04 58° WSW 03:26:30 10° NNW
GENESIS II 4.3 03:21:04 31° SSW 03:22:55 80° SE 03:26:58 10° NE
ADEOS Rocket 3.3 03:16:28 10° SSE 03:23:14 78° ENE 03:29:18 10° NNW
ALOS 4.2 03:19:35 10° NNE 03:23:42 30° E 03:27:46 10° SSE
CZ-4B R/B 2.6 03:21:15 10° SE 03:24:16 43° ENE 03:27:23 10° N
Cosmos 1459 Rocket 4.4 03:23:40 10° N 03:29:44 64° ENE 03:35:44 10° SSE
Spot 4 Rocket 4.5 03:26:09 10° N 03:30:58 42° WNW 03:33:39 23° WSW
ERS-2 2.0 03:28:34 10° S 03:32:13 72° WSW 03:35:54 10° NNW
MSX 4.0 03:27:40 10° N 03:33:19 55° WNW 03:37:58 15° SW
USA 234 3.5 03:27:29 10° SSE 03:33:42 46° SW 03:39:58 10° WNW
Meteor 1-27 Rocket 4.1 03:29:38 10° S 03:35:33 74° E 03:41:28 10° NNE
Cosmos 1484 Rocket 4.5 03:32:44 10° NNE 03:36:27 36° E 03:40:10 10° SSE
Cosmos 2360 Rocket 3.6 03:35:25 10° S 03:40:35 38° ESE 03:45:46 10° NE
Cosmos 1536 2.8 03:37:49 10° N 03:41:56 89° WSW 03:46:00 10° S
Cosmos 1898 Rocket 3.5 03:37:08 10° NNW 03:42:19 62° WSW 03:47:32 10° S
X-37B 1.6 03:42:02 27° SW 03:42:50 31° SSW 03:45:41 10° SE
IRIDIUM 104 4.5 03:39:52 10° NNW 03:44:55 51° W 03:49:57 10° SSW
Cosmos 1697 Rocket 4.0 03:43:21 17° W 03:46:07 24° NW 03:50:36 10° N
BREEZE M DEB (TANK) 4.3 03:33:52 10° WNW 03:47:11 42° SW 03:51:30 10° SSE
CZ-4C R/B 4.0 03:41:13 10° NW 03:47:40 43° NE 03:55:12 10° ESE
Meteor 1-31 Rocket 4.3 03:44:22 10° NNE 03:47:57 38° E 03:51:33 10° SSE
deb Chang Zheng 4 4.0 03:45:55 10° NNE 03:50:13 64° ESE 03:54:27 10° S
Cosmos 1980 Rocket 3.0 03:47:24 19° WSW 03:50:49 34° NW 03:55:58 10° NNE
Cosmos 858 Rocket 4.4 03:47:55 10° NNW 03:53:06 69° WSW 03:58:15 10° S
Cosmos 921 Rocket 3.7 03:52:48 18° WSW 03:55:19 34° WNW 03:59:11 10° N
Cosmos 2263 Rocket 2.8 03:50:23 10° NW 03:55:23 33° WSW 04:00:23 10° SSW
Cosmos 2322 Rocket 2.3 03:51:32 10° SSW 03:57:13 86° ESE 04:02:58 10° NNE
Cosmos 1844 4.4 03:51:45 10° NNW 03:57:16 56° ENE 04:02:43 10° SE
USA 32 4.1 03:54:38 10° NNW 03:59:45 55° W 04:04:52 10° SSW
Cosmos 1844 Rocket 3.0 03:56:02 10° NNW 04:01:42 72° ENE 04:07:20 10° SE
Cosmos 2173 Rocket 4.0 03:56:09 10° NNW 04:02:29 77° W 04:08:50 10° S
Cosmos 1812 3.7 04:01:20 15° WSW 04:03:47 27° WNW 04:07:07 10° NNW
Cosmos 1707 Rocket 3.6 03:59:53 10° SSW 04:04:07 55° WNW 04:08:25 10° N
ADEOS II 4.1 04:03:21 10° NW 04:04:15 10° NW 04:05:07 10° WNW
SL-16 R/B 2.2 04:00:44 10° SW 04:06:23 70° WNW 04:12:05 10° NNE
USA 305 3.7 04:03:31 13° W 04:07:08 43° N 04:11:12 10° ENE
Cosmos 1666 3.4 04:04:09 10° NNW 04:07:35 32° W 04:10:58 10° SSW
Cosmos 1937 Rocket 3.6 04:03:11 10° NNW 04:08:10 51° WSW 04:13:07 10° S
ARIANE 5 R/B 4.2 04:05:57 10° NNW 04:09:00 16° NW 04:11:42 11° W
ADEOS 3.6 04:04:50 10° NNE 04:10:05 85° WNW 04:15:18 10° SSW
USA 306 3.7 04:07:32 11° WNW 04:11:20 43° N 04:15:25 10° ENE
IDEFIX/ARIANE 42P 4.1 04:10:25 10° NNW 04:14:04 19° WNW 04:17:39 10° W
Cosmos 1814 Rocket 4.3 04:12:25 10° SSW 04:17:36 73° ESE 04:22:53 10° NNE
CZ-2C R/B 3.0 04:13:52 10° N 04:18:39 42° WNW 04:23:30 10° SW
Cosmos 841 Rocket 3.5 04:14:06 10° SSW 04:19:20 89° WNW 04:24:38 10° NNE
Cosmos 1733 Rocket 3.2 04:15:29 10° NNW 04:19:41 49° W 04:23:51 10° SSW
SAR-Lupe-4 3.9 04:17:46 10° S 04:21:12 43° W 04:24:41 10° NNW
Cosmos 2061 Rocket 4.1 04:15:12 10° N 04:21:40 81° W 04:28:06 10° S
SKYMED 2 3.7 04:19:30 10° SSE 04:23:51 83° ENE 04:28:13 10° NNW
Cosmos 44 Rocket 3.6 04:19:29 10° SSW 04:24:11 69° SE 04:29:02 10° NE
SL-4 R/B 2.7 04:22:09 10° SW 04:26:45 64° SSE 04:31:32 10° ENE
Cosmos 1763 Rocket 4.0 04:23:10 10° SW 04:28:14 44° WNW 04:33:19 10° NNE
Cosmos 2219 Rocket 4.0 04:26:03 10° S 04:31:09 36° ESE 04:36:17 10° NE
Cosmos 2016 Rocket 4.0 04:27:05 10° NNW 04:33:10 67° W 04:39:11 10° S
FALCON 9 DEB 3.3 04:30:53 10° WSW 04:34:18 74° SSE 04:37:45 10° ENE
